{"data":{"norad_id":65967,"epoch":"2026-05-25T00:33:02.947392Z","epoch_age_seconds":66373,"freshness":"FRESH","line1":"1 65967U 25228W   26145.02295078 -.00002345  00000+0 -27871-3 0  9996","line2":"2 65967  51.9055   5.6697 0001004 115.5050 244.6016 14.79930369 34770","mean_motion":14.79930369,"eccentricity":0.0001004,"inclination_deg":51.9055,"raan_deg":5.6697,"arg_perigee_deg":115.505,"mean_anomaly_deg":244.6016,"bstar":-0.00027871,"rev_number":3477,"period_min":97.30187515329,"perigee_km":628.8403634365,"apogee_km":630.24750576817,"semimajor_km":7007.6809346023,"source":"CELESTRAK","updated_at":"2026-05-25T13:38:05.872692Z"}}